Weather History for Poplar Bluff, MO

Change the Weather History Date:

Wednesday, April 3, 2013

  Actual Average Record
Temperature  
Mean Temperature 44 °F -  
Max Temperature 54 °F 66 °F 87 °F (1940)
Min Temperature 34 °F 43 °F 25 °F (1936)
Degree Days  
Heating Degree Days 21    
Moisture  
Dew Point 25 °F    
Average Humidity 47    
Maximum Humidity 68    
Minimum Humidity 31    
Precipitation  
Precipitation 0.00 in - - ()
Sea Level Pressure  
Sea Level Pressure 30.27 in    
Wind  
Wind Speed 8 mph (NE)    
Max Wind Speed 15 mph    
Max Gust Speed 24 mph    
Visibility 10 miles    
Events      
Averages and records for this station are not official NWS values.
T = Trace of Precipitation, MM = Missing Value Source: NWS Daily Summary

Daily Weather History Graph

Daily Weather History Graph

Search for Another Location

Airport:

Trip Planner

Search our weather history database for the weather conditions in past years. The results will help you decide how hot, cold, wet, or windy it might be!

Date:

Astronomy

Apr. 03, 2013 Rise Set
Actual Time 6:43 AM CDT 7:25 PM CDT
Civil Twilight 6:17 AM CDT 7:51 PM CDT
Nautical Twilight 5:46 AM CDT 8:22 PM CDT
Astronomical Twilight 5:15 AM CDT 8:54 PM CDT
Moon 2:15 AM CDT (4/3) 12:47 PM CDT (4/3)
Length of Visible Light 13h 34m
Length of Day
12h 41m
Last Quarter, 44% of the Moon is Illuminated
Apr 3
Last Quarter
Apr 10
New
Apr 18
First Quarter
Apr 25
Full
May 2
Last Quarter

Hourly Weather History & Observations

Time (CDT) Temp. Windchill Dew Point Humidity Pressure Visibility Wind Dir Wind Speed Gust Speed Precip Events Conditions
12:53 AM 37.9 °F 33.5 °F 28.0 °F 68% 30.29 in 10.0 mi NNE 5.8 mph - N/A   Clear
1:53 AM 37.9 °F 32.7 °F 24.1 °F 57% 30.28 in 10.0 mi NE 6.9 mph - N/A   Clear
2:53 AM 37.0 °F 31.6 °F 24.1 °F 59% 30.28 in 10.0 mi NNE 6.9 mph - N/A   Clear
3:53 AM 37.9 °F 31.5 °F 23.0 °F 55% 30.24 in 10.0 mi NE 9.2 mph - N/A   Clear
4:53 AM 37.0 °F 31.6 °F 23.0 °F 57% 30.25 in 10.0 mi NE 6.9 mph - N/A   Clear
5:53 AM 36.0 °F 33.3 °F 21.9 °F 57% 30.31 in 10.0 mi NNE 3.5 mph - N/A   Clear
6:53 AM 34.0 °F 29.8 °F 24.1 °F 67% 30.33 in 10.0 mi NNE 4.6 mph - N/A   Clear
7:53 AM 37.9 °F 31.5 °F 23.0 °F 55% 30.34 in 10.0 mi NNE 9.2 mph - N/A   Clear
8:53 AM 41.0 °F 34.3 °F 26.1 °F 55% 30.32 in 10.0 mi NE 11.5 mph - N/A   Clear
9:53 AM 45.0 °F 38.5 °F 26.1 °F 48% 30.32 in 10.0 mi NE 13.8 mph - N/A   Clear
10:53 AM 48.9 °F - 24.1 °F 38% 30.33 in 10.0 mi NE 13.8 mph 21.9 mph N/A   Clear
11:53 AM 51.1 °F - 23.0 °F 33% 30.31 in 10.0 mi NE 13.8 mph 23.0 mph N/A   Clear
12:53 PM 52.0 °F - 23.0 °F 32% 30.29 in 10.0 mi NE 15.0 mph 24.2 mph N/A   Clear
1:53 PM 52.0 °F - 24.1 °F 34% 30.29 in 10.0 mi ENE 13.8 mph 18.4 mph N/A   Clear
2:53 PM 53.1 °F - 23.0 °F 31% 30.26 in 10.0 mi NE 15.0 mph 23.0 mph N/A   Clear
3:53 PM 53.1 °F - 24.1 °F 32% 30.24 in 10.0 mi NE 12.7 mph 20.7 mph N/A   Clear
4:53 PM 54.0 °F - 25.0 °F 33% 30.23 in 10.0 mi East 9.2 mph - N/A   Clear
5:53 PM 53.1 °F - 25.0 °F 34% 30.22 in 10.0 mi East 10.4 mph - N/A   Clear
6:53 PM 51.1 °F - 26.1 °F 38% 30.23 in 10.0 mi ENE 6.9 mph - N/A   Clear
7:53 PM 48.9 °F - 27.0 °F 43% 30.22 in 9.0 mi ENE 6.9 mph - N/A   Clear
8:53 PM 46.0 °F 43.9 °F 28.9 °F 51% 30.23 in 10.0 mi NNE 4.6 mph - N/A   Clear
9:53 PM 46.0 °F 42.5 °F 28.9 °F 51% 30.22 in 10.0 mi NE 6.9 mph - N/A   Clear
10:53 PM 45.0 °F 41.2 °F 28.0 °F 52% 30.21 in 10.0 mi NE 6.9 mph - N/A   Clear
11:53 PM 45.0 °F 40.6 °F 27.0 °F 49% 30.20 in 10.0 mi NNE 8.1 mph - N/A   Clear